• Join FlightAware (Why Join?)
  • Login
  • US Flag 
04:32PM EST


 

Airport Tracker/Info


-or-


 

Live Flight TrackerFlight Track Log ✈ ASQ5432 ✈ 01-Jul-2013 ✈ KSDF - KATL

Flight Track Log - Related Links

Times and Time Zones

All times are in EDT time to prevent confusion due to time zone crossing. See the ASQ5432 flight status page for this flight to view local times or setup timezone preferences in your user account.

Time Position Orientation Groundspeed Altitude Reporting Facility
EDT Latitude Longitude Course Direction KTS MPH feet Rate Location/Type
09:01AM 38.2667 -85.7500 102° East 229 264 3,900  Level Louisville TRACON
09:01AM 38.2919 -85.6944 60° Northeast 273 314 5,300 2,222 Climbing Indianapolis Center
09:02AM 38.2711 -85.6136 108° East 261 300 7,900 2,488 Climbing Indianapolis Center
09:03AM 38.2103 -85.5517 141° Southeast 271 312 10,400 1,805 Climbing Indianapolis Center
09:04AM 38.1394 -85.4828 143° Southeast 318 366 11,600 1,574 Climbing Indianapolis Center
09:05AM 38.0864 -85.3867 125° Southeast 349 402 13,600 1,902 Climbing Indianapolis Center
09:06AM 38.0294 -85.0598 102° East  Level FlightAware Approximate
09:06AM 38.0706 -85.2622 99° East 356 410 15,500  Level Indianapolis Center
09:07AM 38.0817 -85.1139 85° East 366 421 17,400 1,707 Climbing Indianapolis Center
09:08AM 38.0303 -84.9944 119° Southeast 376 433 19,000 1,512 Climbing Indianapolis Center
09:09AM 37.9844 -84.8711 115° Southeast 384 442 20,500 1,377 Climbing Indianapolis Center
09:10AM 37.9344 -84.7453 117° Southeast 396 456 21,800 1,171 Climbing Indianapolis Center
09:12AM 37.8839 -84.6136 116° Southeast 411 473 22,900 1,073 Climbing Indianapolis Center
09:13AM 37.8306 -84.4783 116° Southeast 425 489 24,000 1,024 Climbing Indianapolis Center
09:14AM 37.7772 -84.3383 116° Southeast 437 503 25,000 1,024 Climbing Indianapolis Center
09:15AM 37.7219 -84.1983 116° Southeast 444 511 26,100 1,122 Climbing Indianapolis Center
09:16AM 37.6564 -84.0333 117° Southeast 448 516 27,300 1,113 Climbing Indianapolis Center
09:17AM 37.6008 -83.8922 116° Southeast 449 517 28,400 829 Climbing Indianapolis Center
09:18AM 37.5450 -83.7492 116° Southeast 451 519 29,000 293 Climbing Indianapolis Center
09:19AM 37.4872 -83.6056 117° Southeast 457 526 29,000  Level Indianapolis Center
09:20AM 37.4289 -83.4603 117° Southeast 463 533 29,000  Level Indianapolis Center
09:21AM 37.3692 -83.3153 117° Southeast 465 535 29,000  Level Indianapolis Center
09:22AM 37.3106 -83.1703 117° Southeast 463 533 29,000  Level Indianapolis Center
09:23AM 37.2303 -83.0486 130° Southeast 449 517 29,000  Level Indianapolis Center
09:24AM 37.0942 -83.0339 175° South 425 489 29,000  Level Indianapolis Center
09:25AM 36.9772 -83.0364 181° South 425 489 29,000  Level Indianapolis Center
09:26AM 36.8597 -83.0375 180° South 430 495 29,000  Level Indianapolis Center
09:27AM 36.7417 -83.0394 181° South 430 495 29,000  Level Indianapolis Center
09:28AM 36.6228 -83.0408 181° South 429 494 29,000  Level Indianapolis Center
09:29AM 36.4842 -83.0422 180° South 427 491 29,000  Level Indianapolis Center
09:30AM 36.3650 -83.0436 181° South 428 493 29,000  Level Indianapolis Center
09:31AM 36.2817 -83.0472 182° South 435 501 29,000  Level Atlanta Center
09:32AM 36.1586 -83.0486 181° South 435 501 29,000  Level Atlanta Center
09:33AM 36.0417 -83.0500 181° South 435 501 29,000  Level Atlanta Center
09:34AM 35.9208 -83.0517 181° South 435 501 29,000  Level Atlanta Center
09:35AM 35.8019 -83.0556 182° South 440 506 29,000  Level Atlanta Center
09:36AM 35.6897 -83.1056 200° South 423 487 29,000  Level Atlanta Center
09:37AM 35.5817 -83.1578 201° Southwest 423 487 29,000  Level Atlanta Center
09:38AM 35.4714 -83.2100 201° Southwest 428 493 29,000 -300 Level Atlanta Center
09:39AM 35.3550 -83.2647 201° Southwest 428 493 28,400 -950 Descending Atlanta Center
09:40AM 35.2467 -83.3139 200° South 428 493 27,100 -1,250 Descending Atlanta Center
09:41AM 35.1386 -83.3656 201° Southwest 428 493 25,900 -1,050 Descending Atlanta Center
09:42AM 35.0322 -83.4147 201° Southwest 428 493 25,000 -1,050 Descending Atlanta Center
09:43AM 34.9261 -83.4611 200° South 410 472 23,800 -1,050 Descending Atlanta Center
09:44AM 34.8242 -83.5100 201° Southwest 410 472 22,900 -900 Descending Atlanta Center
09:45AM 34.7283 -83.5561 202° Southwest 410 472 22,000 -1,050 Descending Atlanta Center
09:46AM 34.6283 -83.5994 200° South 393 452 20,800 -1,150 Descending Atlanta Center
09:47AM 34.5303 -83.6456 201° Southwest 388 447 19,700 -1,200 Descending Atlanta Center
09:48AM 34.4325 -83.6911 201° Southwest 388 447 18,400 -1,250 Descending Atlanta Center
09:49AM 34.3364 -83.7319 199° South 381 438 17,200 -1,350 Descending Atlanta Center
09:50AM 34.2428 -83.7775 202° Southwest 373 429 15,700 -1,450 Descending Atlanta Center
09:51AM 34.1364 -83.8256 201° Southwest 373 429 14,300 -850 Descending Atlanta Center
09:52AM 34.0467 -83.8858 209° Southwest 373 429 14,000 -568 Descending Atlanta Center
09:52AM 34.0000 -83.9333 220° Southwest 363 418 13,400 -1,011 Descending Atlanta TRACON
09:53AM 33.9333 -84.0000 220° Southwest 371 427 12,500 -684 Descending Atlanta TRACON
09:54AM 33.8667 -84.0833 226° Southwest 369 425 12,100 -330 Descending Atlanta TRACON
09:55AM 33.8150 -84.1214 211° Southwest 366 421 12,000 -66 Descending Atlanta Center
09:56AM 33.7483 -84.1711 212° Southwest 318 366 12,000  Level Atlanta Center
09:57AM 33.7294 -84.2386 251° West 228 262 12,000 -50 Level Atlanta Center
09:58AM 33.7292 -84.3236 270° West 242 278 11,900 -750 Descending Atlanta Center
09:59AM 33.7289 -84.4011 270° West 242 278 10,500 -1,385 Descending Atlanta Center
10:00AM 33.7333 -84.5167 273° West 230 265 8,600 -1,409 Descending Atlanta TRACON
10:01AM 33.7333 -84.6000 270° West 225 259 7,000 -1,350 Descending Atlanta TRACON
10:02AM 33.7333 -84.6667 270° West 224 258 5,900 -1,368 Descending Atlanta TRACON
10:03AM 33.6833 -84.6833 196° South 228 262 4,400 -1,000 Descending Atlanta TRACON
10:04AM 33.6500 -84.6333 129° Southeast 221 254 4,000 -588 Descending Atlanta TRACON
10:05AM 33.6500 -84.5833 90° East 201 231 3,400 -889 Descending Atlanta TRACON
10:06AM 33.6500 -84.5167 90° East 179 206 2,400 -900 Descending Atlanta TRACON
10:07AM 33.6500 -84.4667 90° East 144 166 1,600 -800 Descending Atlanta TRACON
10:09AM 33.6367 -84.4279 64° Northeast  Level Estimated
10:16AM 33.6367 -84.4279 64° Northeast  Level Estimated